sino-us.com alexa rank chart, sino-us.com alexa rank daily changes

sino-us.com alexa rank chart, sino-us.com alexa rank daily changes

sino-us.com
Actual rank:
37 796

RANK HISTORY

Date Rank Diff
2017/06/24 37 796 -2 854
2017/06/23 40 650 -3 126
2017/06/22 43 776 -3 936
2017/06/21 47 712 -3 640
2017/06/20 51 352 +804
2017/06/19 50 548 +568
2017/06/18 49 980 -2 181
2017/06/17 52 161 -8 215
2017/06/16 60 376 -8 106
2017/06/15 68 482 -7 429
2017/06/14 75 911 -7 500
2017/06/13 83 411 +3 798
2017/06/12 79 613 +1 500
2017/06/11 78 113 -12 662
2017/06/10 90 775 -11 636
2017/06/09 102 411 +3 317
2017/06/08 99 094 +3 728
2017/06/07 95 366 +2 843
2017/06/06 92 523 +1 185
2017/06/05 91 338 +1 374
2017/06/04 89 964 +2 024
2017/06/03 87 940 +4 245
2017/06/02 83 695 +3 271
2017/06/01 80 424 +1 344
2017/05/31 79 080 +3 600
2017/05/30 75 480 +777
2017/05/29 74 703 +2 367
2017/05/28 72 336 +930
2017/05/27 71 406 +1 195
2017/05/26 70 211 +1 445
2017/05/25 68 766 +1 361
2017/05/24 67 405 +226
2017/05/23 67 179 +207
2017/05/22 66 972 -8
2017/05/21 66 980 -303
2017/05/20 67 283 +1 236
2017/05/19 66 047 +329
2017/05/18 65 718 +522
2017/05/17 65 196 +300
2017/05/16 64 896 -345
2017/05/15 65 241 -1 055
2017/05/14 66 296 -1 076
2017/05/13 67 372 -1 363
2017/05/12 68 735 -1 055
2017/05/11 69 790 -541
2017/05/10 70 331 -349
2017/05/09 70 680 -240
2017/05/08 70 920 -877
2017/05/07 71 797 -894
2017/05/06 72 691 +1 118
2017/05/05 71 573 +881
2017/05/04 70 692 -109
2017/05/03 70 801 -1 655
2017/05/02 72 456 -1 488
2017/05/01 73 944 -1 642
2017/04/30 75 586 -39
2017/04/29 75 625 -204
2017/04/28 75 829 +475
2017/04/27 75 354 +332
2017/04/26 75 022 +1 663
2017/04/25 73 359

WIDGET FOR YOUR SITE

DOMAINS WITH THE NEAREST RANK

Domain Rank
shouldianswer.net 37 791
mojtv.hr 37 792
mourjan.com 37 793
carrefour-banque.fr 37 794
flair.be 37 795
sino-us.com 37 796
militarytimes.com 37 797
sakugabooru.com 37 798
baemin.com 37 799
vidnice.space 37 800
uolhost.uol.com.br 37 801

DOMAINS WITH THE NEAREST RANK BY TLD .com

Domain Rank
daimg.com 37 784
thetruthaboutcars.com 37 786
diariodelinmigrante.com 37 787
tastelessgentlemen.com 37 788
mourjan.com 37 793
sino-us.com 37 796
militarytimes.com 37 797
sakugabooru.com 37 798
baemin.com 37 799
pan6.com 37 802
tanteifile.com 37 803